Location: Moscow
(55.7500°N, 37.5830°E)
Time: 04:58:13
(UTC+03:00)

Vanguard 1 - Pass Details

Date: 06 December 2021
Orbit: 652 x 3830 km, 34.2° (Epoch: 21 January)

Event Time Altitude Azimuth Distance (km) Brightness Sun altitude
Rises 21:41:07 0° 190° (S) 6,811 14.2 -45.7°
Enters shadow 21:43:14 - 185° (S) 6,591 14.1 -46.0°
Reaches altitude 10° 21:47:15 10° 175° (S) 6,249 - -46.4°
Maximum altitude 22:00:22 21° 136° (SE) 5,936 - -47.9°
Drops below altitude 10° 22:14:32 10° 99° (E) 6,868 - -49.5°
Sets 22:21:41 0° 86° (E) 7,668 - -50.2°
